Lid_Strength_Index
12 15 18 17 16 16 16 16 18 18 15 17 18 18 17 17 16 16 16 15 16 16 15 15 15 15 15 15 15 15 14 14 14 15 15 14 15 13 13 11 12 11 12 11
15 17 15 14 15 17 17 18 20 18 17 17 18 18 17 17 17 17 17 17 17 17 17 16 16 16 16 16 16 15 15 14 14 14 14 15 15 13 14 13 13 13 13 12
17 17 15 16 17 16 18 19 20 19 18 19 20 19 19 18 18 18 18 18 18 18 18 18 17 17 17 17 17 16 15 15 14 14 14 14 14 14 15 14 13 13 12 12
17 16 17 17 17 17 18 17 18 18 21 23 20 23 20 20 19 19 18 19 19 19 18 18 18 18 18 17 17 16 16 15 15 15 15 15 16 16 15 14 13 13 12 12
17 18 18 18 17 17 18 17 18 19 22 22 22 26 21 21 21 20 19 19 19 19 19 18 18 17 17 17 17 17 16 16 15 15 15 15 16 15 15 14 14 13 12 12
17 16 17 18 17 16 17 18 19 20 23 26 28 26 21 21 20 21 19 19 19 19 19 19 18 18 18 18 18 17 16 16 16 15 15 15 16 16 15 15 15 14 14 13
18 18 18 17 19 17 18 21 25 24 26 24 32 27 20 19 20 20 19 19 20 19 20 19 19 19 18 18 18 17 17 16 16 16 16 15 15 15 15 15 15 15 15 14
24 21 19 17 19 20 20 22 24 28 27 25 31 26 20 21 20 20 19 19 19 19 19 19 19 19 19 18 18 18 17 17 16 16 16 15 15 15 15 15 15 15 15 14
23 21 18 18 18 19 20 24 22 30 37 31 26 22 19 20 21 21 20 20 20 20 19 19 19 19 19 19 18 18 17 17 16 16 16 16 15 15 15 15 14 14 14 13
21 24 21 18 18 19 20 20 24 26 29 30 27 30 22 23 23 22 21 21 20 20 19 19 19 19 19 18 19 18 17 17 17 16 16 15 15 15 14 14 14 14 14 14
21 24 21 20 24 23 23 24 25 25 24 28 31 25 22 23 24 23 22 20 23 23 20 20 19 19 18 19 19 18 18 18 17 16 16 16 15 15 14 14 14 14 14 13
19 21 26 23 22 21 21 22 22 25 28 28 27 25 22 27 28 30 23 21 23 24 22 22 21 19 19 20 20 19 18 18 17 17 16 16 15 15 15 14 14 13 13 13
19 25 28 23 23 22 24 21 22 25 23 28 28 23 26 28 28 27 27 25 24 25 25 24 22 21 21 20 20 19 19 18 17 17 17 16 16 15 15 14 13 12 12 12
17 21 25 24 23 26 25 23 22 23 28 24 24 20 18 19 25 24 25 26 27 26 27 27 25 23 21 21 21 21 19 18 17 17 17 16 16 15 14 13 12 12 11 12
20 27 25 24 24 26 23 22 24 24 22 25 21 27 20 19 23 26 30 31 30 26 25 25 26 24 24 24 23 22 21 19 18 18 18 17 16 15 14 13 12 11 11 11
20 27 28 27 24 24 25 23 22 23 22 23 22 23 18 23 33 28 28 30 26 27 27 26 25 24 23 24 23 20 20 20 19 19 18 17 16 14 14 12 11 11 11 11
24 28 30 29 28 28 26 25 23 25 27 25 26 22 32 27 27 27 25 26 28 30 28 26 25 24 24 24 22 22 21 21 21 20 18 17 16 15 14 12 11 11 12 12
29 30 33 29 30 31 21 23 23 23 22 24 24 22 27 25 25 25 25 27 28 27 26 24 24 23 22 25 24 22 23 22 20 20 18 16 16 15 13 13 13 13 12 13
21 26 29 32 38 25 21 24 23 23 23 20 22 21 24 24 24 22 22 23 23 24 23 23 23 25 23 21 21 20 20 20 20 19 18 16 16 17 16 15 15 14 14 13
23 25 26 37 33 30 22 24 22 22 25 23 21 22 23 23 25 23 22 21 21 20 20 20 19 19 19 19 19 19 20 20 19 18 17 17 17 17 18 17 16 15 14 13
25 24 26 29 32 27 22 22 22 25 20 23 22 22 23 24 23 23 21 21 20 20 20 19 19 19 20 19 19 20 20 20 18 16 17 18 17 17 17 16 15 15 14 14
25 26 28 31 28 26 22 22 21 20 22 22 22 23 23 22 22 22 22 21 21 21 21 20 20 21 20 20 20 21 21 19 17 18 18 18 18 17 16 16 16 15 16 17
25 21 23 23 22 21 21 21 21 21 22 22 22 23 23 23 23 22 22 22 22 22 21 20 21 22 21 21 21 22 21 19 19 20 20 19 18 17 16 16 18 18 17 16
23 21 22 21 20 20 20 20 21 21 22 21 22 22 23 24 23 22 23 22 22 22 22 22 24 24 23 22 22 22 20 20 21 21 20 19 19 19 18 17 17 18 17 17
20 21 21 22 19 20 21 21 21 21 21 22 22 22 23 23 23 22 23 23 23 23 23 24 25 25 24 23 23 23 21 21 21 21 20 20 20 20 20 19 19 17 16 15
21 19 21 20 18 19 21 20 21 22 23 23 23 25 24 23 23 23 24 24 24 25 24 25 24 25 25 24 24 23 21 21 22 22 21 21 21 21 21 21 20 16 14 12